Hourly Weather Russkiy Yurmash

Today, 13 April, Tuesday

Time Temperature Precipitation Wind Pressure Humidity
00:00 +6°C° 0 mm 2 mps 767 mmHg 94%
01:00 +6°C° 0 mm 2 mps 767 mmHg 94%
02:00 +5°C° 0 mm 2 mps 767 mmHg 94%
03:00 +6°C° 0 mm 1 mps 767 mmHg 94%
04:00 +6°C° 0 mm 1 mps 767 mmHg 94%
05:00 +7°C° 0 mm 1 mps 767 mmHg 94%
06:00 +7°C° 0 mm 1 mps 767 mmHg 93%
07:00 +7°C° 0 mm 0 mps 767 mmHg 93%
08:00 +10°C° 0 mm 1 mps 767 mmHg 86%
09:00 +12°C° 0 mm 2 mps 768 mmHg 80%
10:00 +13°C° 0 mm 2 mps 768 mmHg 74%
11:00 +13°C° 0 mm 3 mps 767 mmHg 70%
12:00 +14°C° 0 mm 3 mps 767 mmHg 66%
13:00 +17°C° 0 mm 3 mps 767 mmHg 62%
14:00 +17°C° 0 mm 3 mps 767 mmHg 62%
15:00 +17°C° 0 mm 3 mps 767 mmHg 61%
16:00 +17°C° 0 mm 3 mps 766 mmHg 60%
17:00 +16°C° 0 mm 2 mps 766 mmHg 65%
18:00 +15°C° 0 mm 2 mps 766 mmHg 70%
19:00 +14°C° 0 mm 2 mps 766 mmHg 75%
20:00 +13°C° 0 mm 2 mps 765 mmHg 78%
21:00 +13°C° 0 mm 2 mps 765 mmHg 81%
22:00 +12°C° 0 mm 2 mps 765 mmHg 84%
23:00 +10°C° 0 mm 2 mps 765 mmHg 86%

Tomorrow, 14 April, Wednesday

Time Temperature Precipitation Wind Pressure Humidity
00:00 +10°C° 0 mm 2 mps 765 mmHg 87%
01:00 +9°C° 0 mm 2 mps 765 mmHg 88%
02:00 +9°C° 0 mm 2 mps 765 mmHg 88%
03:00 +8°C° 0 mm 2 mps 765 mmHg 89%
04:00 +9°C° 0 mm 1 mps 765 mmHg 89%
05:00 +9°C° 0 mm 1 mps 765 mmHg 87%
06:00 +9°C° 0 mm 1 mps 765 mmHg 85%
07:00 +10°C° 0 mm 1 mps 765 mmHg 83%
08:00 +11°C° 0 mm 1 mps 764 mmHg 75%
09:00 +12°C° 0 mm 1 mps 764 mmHg 67%
10:00 +14°C° 0 mm 1 mps 764 mmHg 59%
11:00 +15°C° 0 mm 1 mps 763 mmHg 56%
12:00 +16°C° 0 mm 1 mps 763 mmHg 53%
13:00 +18°C° 0 mm 1 mps 762 mmHg 50%
14:00 +19°C° 0 mm 1 mps 762 mmHg 48%
15:00 +20°C° 0 mm 1 mps 761 mmHg 47%
16:00 +20°C° 0 mm 1 mps 761 mmHg 46%
17:00 +19°C° 0 mm 1 mps 761 mmHg 51%
18:00 +18°C° 0 mm 1 mps 760 mmHg 55%
19:00 +16°C° 0 mm 1 mps 760 mmHg 59%
20:00 +15°C° 0 mm 1 mps 760 mmHg 62%
21:00 +14°C° 0 mm 1 mps 760 mmHg 65%
22:00 +13°C° 0 mm 1 mps 760 mmHg 68%
23:00 +13°C° 0 mm 1 mps 760 mmHg 68%

Day after tomorrow, 15 April, Thursday

Time Temperature Precipitation Wind Pressure Humidity
00:00 +12°C° 0 mm 1 mps 759 mmHg 68%
01:00 +10°C° 0 mm 2 mps 759 mmHg 68%
02:00 +9°C° 0 mm 2 mps 759 mmHg 67%
03:00 +8°C° 0 mm 2 mps 759 mmHg 66%
04:00 +8°C° 0 mm 2 mps 759 mmHg 65%
05:00 +8°C° 0 mm 2 mps 759 mmHg 65%
06:00 +8°C° 0 mm 2 mps 759 mmHg 64%
07:00 +8°C° 0 mm 2 mps 759 mmHg 64%
08:00 +10°C° 0 mm 2 mps 758 mmHg 57%
09:00 +13°C° 0 mm 2 mps 758 mmHg 50%
10:00 +13°C° 0 mm 3 mps 758 mmHg 44%
11:00 +16°C° 0 mm 3 mps 758 mmHg 43%
12:00 +17°C° 0 mm 3 mps 757 mmHg 41%
13:00 +18°C° 0 mm 3 mps 757 mmHg 40%
14:00 +18°C° 0 mm 3 mps 756 mmHg 39%
15:00 +19°C° 0 mm 3 mps 756 mmHg 37%
16:00 +19°C° 0 mm 2 mps 755 mmHg 36%
17:00 +18°C° 0 mm 2 mps 755 mmHg 40%
18:00 +17°C° 0 mm 2 mps 754 mmHg 44%
19:00 +16°C° 0 mm 1 mps 754 mmHg 48%
20:00 +15°C° 0 mm 1 mps 754 mmHg 49%
21:00 +14°C° 0 mm 1 mps 754 mmHg 51%
22:00 +13°C° 0 mm 1 mps 754 mmHg 53%
23:00 +12°C° 0 mm 1 mps 753 mmHg 55%

16 April, Friday

Time Temperature Precipitation Wind Pressure Humidity
00:00 +12°C° 0 mm 1 mps 753 mmHg 57%
01:00 +11°C° 0 mm 1 mps 753 mmHg 59%
02:00 +11°C° 0 mm 1 mps 753 mmHg 60%
03:00 +10°C° 0 mm 1 mps 752 mmHg 61%
04:00 +10°C° 0 mm 1 mps 752 mmHg 63%
05:00 +10°C° 0 mm 1 mps 752 mmHg 63%
06:00 +9°C° 0 mm 0 mps 752 mmHg 62%
07:00 +10°C° 0 mm 0 mps 752 mmHg 62%
08:00 +11°C° 0 mm 0 mps 751 mmHg 57%
09:00 +13°C° 0 mm 0 mps 751 mmHg 52%
10:00 +14°C° 0 mm 0 mps 751 mmHg 47%
11:00 +16°C° 0 mm 1 mps 751 mmHg 45%
12:00 +18°C° 0 mm 1 mps 751 mmHg 43%
13:00 +18°C° 0 mm 2 mps 751 mmHg 41%
14:00 +18°C° 0 mm 2 mps 750 mmHg 43%
15:00 +18°C° 0 mm 3 mps 750 mmHg 46%
16:00 +18°C° 0 mm 3 mps 750 mmHg 48%
17:00 +15°C° 0 mm 4 mps 750 mmHg 55%
18:00 +14°C° 0 mm 5 mps 750 mmHg 61%
19:00 +13°C° 0 mm 6 mps 750 mmHg 68%
20:00 +10°C° 0 mm 5 mps 750 mmHg 72%
21:00 +9°C° 0 mm 5 mps 751 mmHg 76%
22:00 +7°C° 0 mm 5 mps 751 mmHg 79%
23:00 +7°C° 0 mm 5 mps 751 mmHg 81%

17 April, Saturday

Time Temperature Precipitation Wind Pressure Humidity
00:00 +6°C° 0 mm 5 mps 751 mmHg 82%
01:00 +5°C° 0 mm 5 mps 751 mmHg 83%
02:00 +5°C° 0 mm 5 mps 751 mmHg 82%
03:00 +3°C° 0 mm 5 mps 751 mmHg 81%
04:00 +4°C° 0 mm 4 mps 751 mmHg 80%
05:00 +3°C° 0 mm 5 mps 751 mmHg 78%
06:00 +3°C° 0 mm 5 mps 751 mmHg 76%
07:00 +3°C° 0 mm 6 mps 752 mmHg 74%
08:00 +3°C° 0 mm 6 mps 752 mmHg 67%
09:00 +4°C° 0 mm 6 mps 752 mmHg 60%
10:00 +4°C° 0 mm 6 mps 752 mmHg 53%
11:00 +5°C° 0 mm 6 mps 752 mmHg 48%
12:00 +6°C° 0 mm 7 mps 752 mmHg 42%
13:00 +7°C° 0 mm 8 mps 752 mmHg 36%
14:00 +6°C° 0.1 mm 8 mps 752 mmHg 38%
15:00 +5°C° 0.1 mm 9 mps 752 mmHg 40%
16:00 +5°C° 0.1 mm 9 mps 752 mmHg 42%
17:00 +3°C° 0 mm 9 mps 753 mmHg 41%
18:00 +2°C° 0 mm 8 mps 753 mmHg 40%
19:00 +2°C° 0 mm 7 mps 754 mmHg 38%
20:00 0°C° 0 mm 7 mps 755 mmHg 40%
21:00 -1°C° 0 mm 7 mps 755 mmHg 41%
22:00 -2°C° 0 mm 6 mps 756 mmHg 42%
23:00 -3°C° 0 mm 6 mps 756 mmHg 48%

18 April, Sunday

Time Temperature Precipitation Wind Pressure Humidity
00:00 -3°C° 0 mm 6 mps 756 mmHg 54%
01:00 -4°C° 0 mm 5 mps 756 mmHg 61%
02:00 -4°C° 0 mm 5 mps 756 mmHg 63%
03:00 -4°C° 0 mm 5 mps 757 mmHg 65%
04:00 -4°C° 0 mm 5 mps 757 mmHg 68%
05:00 -4°C° 0 mm 5 mps 758 mmHg 67%
06:00 -4°C° 0 mm 5 mps 758 mmHg 67%
07:00 -2°C° 0 mm 5 mps 758 mmHg 66%
08:00 -1°C° 0 mm 4 mps 759 mmHg 60%
09:00 0°C° 0 mm 4 mps 759 mmHg 54%
10:00 +1°C° 0 mm 4 mps 759 mmHg 48%
11:00 +3°C° 0 mm 4 mps 758 mmHg 41%
12:00 +4°C° 0 mm 4 mps 758 mmHg 34%
13:00 +5°C° 0 mm 4 mps 758 mmHg 27%
14:00 +5°C° 0 mm 5 mps 758 mmHg 27%
15:00 +5°C° 0 mm 5 mps 757 mmHg 27%
16:00 +5°C° 0 mm 6 mps 757 mmHg 27%
17:00 +4°C° 0 mm 6 mps 756 mmHg 35%
18:00 +4°C° 0 mm 6 mps 756 mmHg 43%
19:00 +4°C° 0 mm 6 mps 755 mmHg 50%
20:00 +3°C° 0.2 mm 6 mps 755 mmHg 63%
21:00 +3°C° 0.2 mm 6 mps 755 mmHg 76%
22:00 +2°C° 0.2 mm 6 mps 754 mmHg 89%
23:00 +2°C° 0.3 mm 5 mps 754 mmHg 87%
Show more